,,,PA_Meas_PMT16A,,PR_Meas_QMR101_102,,RH_Meas_QMH101,,SR_Meas_QMS101,,TA_Meas_QMH101,,GenWind,,GenWind,
date,time,status,PA,status,PR,status,RH,status,SR,status,TA,status,DirAvg,status,SpdAvg,
2012-05-09, 00:00:04,VALID,1004.02,VALID,0,VALID,83.727,VALID,0,VALID,25.6506,VALID,343,VALID,0.393359,
2012-05-09, 00:01:04,VALID,1004,VALID,0,VALID,84.0474,VALID,0,VALID,25.6097,VALID,344,VALID,0.426172,
2012-05-09, 00:02:04,VALID,1003.99,VALID,0,VALID,84.2228,VALID,0,VALID,25.5513,VALID,343,VALID,0.417969,
2012-05-09, 00:03:04,VALID,1003.98,VALID,0,VALID,84.2381,VALID,0,VALID,25.5337,VALID,332,VALID,0.335156,
2012-05-09, 00:04:04,VALID,1003.98,VALID,0,VALID,84.5738,VALID,0,VALID,25.5142,VALID,336,VALID,0.404687,
2012-05-09, 00:05:04,VALID,1003.97,VALID,0,VALID,84.734,VALID,0,VALID,25.4753,VALID,338,VALID,0.375781,
2012-05-09, 00:06:04,VALID,1004,VALID,0,VALID,84.7492,VALID,0,VALID,25.4558,VALID,339,VALID,0.1625,
2012-05-09, 00:07:04,VALID,1003.98,VALID,0,VALID,84.6043,VALID,0,VALID,25.4169,VALID,336,VALID,0.497266,
2012-05-09, 00:08:04,VALID,1003.99,VALID,0,VALID,84.7569,VALID,0,VALID,25.4363,VALID,331,VALID,0.265625,
2012-05-09, 00:09:04,VALID,1003.99,VALID,0,VALID,84.8255,VALID,0,VALID,25.4149,VALID,331,VALID,0.389453,
2012-05-09, 00:10:04,VALID,1004,VALID,0,VALID,84.856,VALID,0,VALID,25.4169,VALID,335,VALID,0.444922,
2012-05-09, 00:11:04,VALID,1004.01,VALID,0,VALID,85.123,VALID,0,VALID,25.4169,VALID,335,VALID,0.378906,
2012-05-09, 00:12:04,VALID,1004,VALID,0,VALID,84.94,VALID,0,VALID,25.4169,VALID,338,VALID,0.443359,
2012-05-09, 00:13:04,VALID,1003.99,VALID,0,VALID,84.7874,VALID,0,VALID,25.3974,VALID,353,VALID,0.682422,
2012-05-09, 00:14:04,VALID,1003.97,VALID,0,VALID,84.6195,VALID,0,VALID,25.3974,VALID,333,VALID,1.0207,
2012-05-09, 00:15:04,VALID,1003.96,VALID,0,VALID,84.7111,VALID,0,VALID,25.4149,VALID,340,VALID,0.617578,
2012-05-09, 00:16:04,VALID,1003.95,VALID,0,VALID,84.6653,VALID,0,VALID,25.4149,VALID,347,VALID,1.08125,
2012-05-09, 00:17:04,VALID,1003.96,VALID,0,VALID,84.8179,VALID,0,VALID,25.4344,VALID,347,VALID,0.520703,
2012-05-09, 00:18:04,VALID,1003.95,VALID,0,VALID,84.6424,VALID,0,VALID,25.4558,VALID,318,VALID,0.347266,
2012-05-09, 00:19:04,VALID,1003.98,VALID,0,VALID,84.7797,VALID,0,VALID,25.4558,VALID,335,VALID,0.169141,
2012-05-09, 00:20:04,VALID,1003.97,VALID,0,VALID,84.8408,VALID,0,VALID,25.4558,VALID,2,VALID,0.254297,
2012-05-09, 00:21:04,VALID,1003.97,VALID,0,VALID,84.8408,VALID,0,VALID,25.4344,VALID,355,VALID,0.699219,
2012-05-09, 00:22:04,VALID,1003.96,VALID,0,VALID,84.7035,VALID,0,VALID,25.4344,VALID,325,VALID,0.8,
2012-05-09, 00:23:04,VALID,1003.97,VALID,0,VALID,84.4746,VALID,0,VALID,25.4539,VALID,336,VALID,0.769141,
2012-05-09, 00:24:04,VALID,1003.95,VALID,0,VALID,84.4136,VALID,0,VALID,25.4928,VALID,354,VALID,0.597656,
2012-05-09, 00:25:04,VALID,1003.97,VALID,0,VALID,84.2381,VALID,0,VALID,25.4928,VALID,354,VALID,0.415234,
2012-05-09, 00:26:04,VALID,1003.98,VALID,0,VALID,84.2,VALID,0,VALID,25.4734,VALID,344,VALID,0.665234,
2012-05-09, 00:27:04,VALID,1003.99,VALID,0,VALID,83.5515,VALID,0.0815089,VALID,25.5142,VALID,350,VALID,1.44062,
2012-05-09, 00:28:04,VALID,1003.99,VALID,0,VALID,83.6125,VALID,0,VALID,25.5727,VALID,355,VALID,0.728906,
2012-05-09, 00:29:04,VALID,1004.02,VALID,0,VALID,83.4752,VALID,0,VALID,25.5921,VALID,344,VALID,0.892187,
2012-05-09, 00:30:04,VALID,1004,VALID,0,VALID,83.3989,VALID,0,VALID,25.5727,VALID,352,VALID,0.642578,
2012-05-09, 00:31:04,VALID,1003.99,VALID,0,VALID,83.5668,VALID,0,VALID,25.5921,VALID,338,VALID,0.676562,
2012-05-09, 00:32:04,VALID,1004,VALID,0,VALID,83.376,VALID,0,VALID,25.5921,VALID,345,VALID,0.833203,
2012-05-09, 00:33:04,VALID,1003.98,VALID,0,VALID,83.582,VALID,0,VALID,25.5727,VALID,291,VALID,0.521484,
2012-05-09, 00:34:04,VALID,1004,VALID,0,VALID,83.6049,VALID,0,VALID,25.5727,VALID,347,VALID,0.634766,
2012-05-09, 00:35:04,VALID,1004,VALID,0,VALID,83.4752,VALID,0,VALID,25.5318,VALID,325,VALID,0.866797,
2012-05-09, 00:36:04,VALID,1003.99,VALID,0,VALID,83.3226,VALID,0,VALID,25.5532,VALID,337,VALID,0.26875,
2012-05-09, 00:37:04,VALID,1004.03,VALID,0,VALID,83.5896,VALID,0,VALID,25.5532,VALID,348,VALID,0.507031,
2012-05-09, 00:38:04,VALID,1003.98,VALID,0,VALID,83.6964,VALID,0,VALID,25.5532,VALID,348,VALID,0.549219,
2012-05-09, 00:39:04,VALID,1004.03,VALID,0,VALID,83.521,VALID,0,VALID,25.5337,VALID,346,VALID,1.12031,
2012-05-09, 00:40:04,VALID,1004.02,VALID,0,VALID,83.6202,VALID,0,VALID,25.5532,VALID,351,VALID,0.635547,
2012-05-09, 00:41:04,VALID,1004.02,VALID,0,VALID,83.5668,VALID,0,VALID,25.5532,VALID,358,VALID,0.989844,
2012-05-09, 00:42:04,VALID,1004.05,VALID,0,VALID,83.6049,VALID,0,VALID,25.5318,VALID,350,VALID,0.684766,
2012-05-09, 00:43:04,VALID,1004.03,VALID,0,VALID,83.3226,VALID,0,VALID,25.5727,VALID,342,VALID,0.934375,
2012-05-09, 00:44:04,VALID,1004.03,VALID,0,VALID,83.2082,VALID,0,VALID,25.5707,VALID,342,VALID,0.924609,
2012-05-09, 00:45:04,VALID,1004.02,VALID,0,VALID,83.1853,VALID,0,VALID,25.5902,VALID,338,VALID,0.540625,
2012-05-09, 00:46:04,VALID,1004.03,VALID,0,VALID,83.0938,VALID,0,VALID,25.6311,VALID,343,VALID,1.00859,
2012-05-09, 00:47:04,VALID,1004.05,VALID,0,VALID,82.9412,VALID,0,VALID,25.6525,VALID,351,VALID,1.01797,
2012-05-09, 00:48:04,VALID,1004.01,VALID,0,VALID,82.9336,VALID,0,VALID,25.67,VALID,352,VALID,0.782812,
2012-05-09, 00:49:04,VALID,1004.01,VALID,0,VALID,83.0022,VALID,0,VALID,25.67,VALID,349,VALID,1.05742,
2012-05-09, 00:50:04,VALID,1004.01,VALID,0,VALID,82.6513,VALID,0,VALID,25.67,VALID,353,VALID,1.3293,
2012-05-09, 00:51:04,VALID,1004.02,VALID,0,VALID,82.6742,VALID,0,VALID,25.6895,VALID,346,VALID,1.02305,
2012-05-09, 00:52:04,VALID,1003.98,VALID,0,VALID,82.7581,VALID,0,VALID,25.6681,VALID,343,VALID,0.504687,
2012-05-09, 00:53:04,VALID,1004.01,VALID,0,VALID,82.7734,VALID,0,VALID,25.7285,VALID,347,VALID,0.898828,
2012-05-09, 00:54:04,VALID,1004,VALID,0,VALID,82.4529,VALID,0,VALID,25.7285,VALID,346,VALID,0.924609,
2012-05-09, 00:55:04,VALID,1004,VALID,0,VALID,82.2317,VALID,0,VALID,25.7869,VALID,358,VALID,0.603125,
2012-05-09, 00:56:04,VALID,1003.98,VALID,0,VALID,82.4072,VALID,0,VALID,25.7869,VALID,344,VALID,0.271094,
2012-05-09, 00:57:04,VALID,1003.99,VALID,0,VALID,82.5826,VALID,0,VALID,25.7674,VALID,350,VALID,0.746094,
2012-05-09, 00:58:04,VALID,1004,VALID,0,VALID,82.5063,VALID,0,VALID,25.7869,VALID,357,VALID,0.685547,
2012-05-09, 00:59:04,VALID,1004.01,VALID,0,VALID,82.5445,VALID,0,VALID,25.746,VALID,352,VALID,0.303906,
2012-05-09, 01:00:04,VALID,1003.99,VALID,0,VALID,82.903,VALID,0,VALID,25.746,VALID,358,VALID,0.823828,
2012-05-09, 01:01:04,VALID,1003.99,VALID,0,VALID,82.8039,VALID,0,VALID,25.7265,VALID,346,VALID,1.10195,
2012-05-09, 01:02:04,VALID,1003.99,VALID,0,VALID,82.9641,VALID,0,VALID,25.748,VALID,349,VALID,0.703906,
2012-05-09, 01:03:04,VALID,1004.02,VALID,0,VALID,83.1624,VALID,0,VALID,25.7285,VALID,354,VALID,1.17969,
2012-05-09, 01:04:04,VALID,1004.03,VALID,0,VALID,83.0632,VALID,0,VALID,25.748,VALID,333,VALID,1.20039,
2012-05-09, 01:05:04,VALID,1004.01,VALID,0,VALID,83.3074,VALID,0,VALID,25.7285,VALID,317,VALID,0.672656,
2012-05-09, 01:06:04,VALID,1004.02,VALID,0,VALID,83.4218,VALID,0,VALID,25.6876,VALID,357,VALID,0.794922,
2012-05-09, 01:07:04,VALID,1004.02,VALID,0,VALID,83.4905,VALID,0,VALID,25.6895,VALID,340,VALID,0.746875,
2012-05-09, 01:08:04,VALID,1004.01,VALID,0,VALID,83.6354,VALID,0,VALID,25.6895,VALID,351,VALID,0.432031,
2012-05-09, 01:09:04,VALID,1004.01,VALID,0,VALID,83.8338,VALID,0,VALID,25.6895,VALID,331,VALID,0.484766,
2012-05-09, 01:10:04,VALID,1004,VALID,0,VALID,83.7346,VALID,0,VALID,25.67,VALID,335,VALID,0.772266,
2012-05-09, 01:11:04,VALID,1003.98,VALID,0,VALID,83.5057,VALID,0,VALID,25.6506,VALID,348,VALID,1.42266,
2012-05-09, 01:12:04,VALID,1004.01,VALID,0,VALID,83.5591,VALID,0,VALID,25.709,VALID,347,VALID,0.791797,
2012-05-09, 01:13:04,VALID,1004,VALID,0,VALID,83.6507,VALID,0,VALID,25.709,VALID,348,VALID,0.498437,
2012-05-09, 01:14:04,VALID,1004,VALID,0,VALID,83.2311,VALID,0,VALID,25.7071,VALID,355,VALID,1.44727,
2012-05-09, 01:15:04,VALID,1003.99,VALID,0,VALID,82.9488,VALID,0,VALID,25.748,VALID,350,VALID,1.11953,
2012-05-09, 01:16:04,VALID,1003.98,VALID,0,VALID,82.8573,VALID,0,VALID,25.7869,VALID,341,VALID,0.661328,
2012-05-09, 01:17:04,VALID,1003.92,VALID,0,VALID,82.8725,VALID,0,VALID,25.7869,VALID,343,VALID,0.210547,
2012-05-09, 01:18:04,VALID,1003.95,VALID,0,VALID,82.9183,VALID,0,VALID,25.8064,VALID,343,VALID,0.233984,
2012-05-09, 01:19:04,VALID,1003.96,VALID,0,VALID,82.6284,VALID,0,VALID,25.7869,VALID,345,VALID,0.591016,
2012-05-09, 01:20:04,VALID,1003.93,VALID,0,VALID,82.575,VALID,0,VALID,25.8064,VALID,343,VALID,0.747266,
2012-05-09, 01:21:04,VALID,1003.91,VALID,0,VALID,82.7886,VALID,0,VALID,25.8259,VALID,347,VALID,0.736719,
2012-05-09, 01:22:04,VALID,1003.91,VALID,0,VALID,82.8039,VALID,0,VALID,25.8064,VALID,347,VALID,0.659375,
2012-05-09, 01:23:04,VALID,1003.9,VALID,0,VALID,82.987,VALID,0,VALID,25.8064,VALID,351,VALID,0.620313,
2012-05-09, 01:24:04,VALID,1003.89,VALID,0,VALID,83.4371,VALID,0,VALID,25.7674,VALID,341,VALID,0.717188,
2012-05-09, 01:25:04,VALID,1003.85,VALID,0,VALID,83.2692,VALID,0,VALID,25.748,VALID,352,VALID,0.4375,
2012-05-09, 01:26:04,VALID,1003.86,VALID,0,VALID,83.5362,VALID,0,VALID,25.7285,VALID,352,VALID,0.371094,
2012-05-09, 01:27:04,VALID,1003.84,VALID,0,VALID,84.0931,VALID,0,VALID,25.7304,VALID,352,VALID,0.382422,
2012-05-09, 01:28:04,VALID,1003.84,VALID,0,VALID,84.4288,VALID,0,VALID,25.67,VALID,352,VALID,0.310156,
2012-05-09, 01:29:04,VALID,1003.84,VALID,0,VALID,84.4746,VALID,0,VALID,25.6116,VALID,352,VALID,0.313672,
2012-05-09, 01:30:04,VALID,1003.83,VALID,0,VALID,84.8255,VALID,0,VALID,25.5746,VALID,352,VALID,0,
2012-05-09, 01:31:04,VALID,1003.84,VALID,0,VALID,84.7797,VALID,0,VALID,25.5357,VALID,349,VALID,0.237109,
2012-05-09, 01:32:04,VALID,1003.81,VALID,0,VALID,84.9857,VALID,0,VALID,25.4948,VALID,349,VALID,0.178516,
2012-05-09, 01:33:04,VALID,1003.81,VALID,0,VALID,85.1917,VALID,0,VALID,25.4753,VALID,349,VALID,0,
2012-05-09, 01:34:04,VALID,1003.8,VALID,0,VALID,85.7334,VALID,0,VALID,25.4558,VALID,349,VALID,0,
2012-05-09, 01:35:04,VALID,1003.81,VALID,0,VALID,85.7944,VALID,0,VALID,25.4383,VALID,350,VALID,0.416406,
2012-05-09, 01:36:04,VALID,1003.82,VALID,0,VALID,85.6571,VALID,0,VALID,25.4188,VALID,350,VALID,0.444141,
2012-05-09, 01:37:04,VALID,1003.81,VALID,0,VALID,85.7105,VALID,0,VALID,25.3798,VALID,350,VALID,0.592969,
2012-05-09, 01:38:04,VALID,1003.78,VALID,0,VALID,85.4892,VALID,0,VALID,25.3779,VALID,344,VALID,0.573047,
2012-05-09, 01:39:04,VALID,1003.77,VALID,0,VALID,85.3672,VALID,0,VALID,25.3955,VALID,344,VALID,0.539844,
2012-05-09, 01:40:04,VALID,1003.8,VALID,0,VALID,85.596,VALID,0,VALID,25.4169,VALID,344,VALID,0.359766,
2012-05-09, 01:41:04,VALID,1003.81,VALID,0,VALID,86.2521,VALID,0.0815089,VALID,25.376,VALID,344,VALID,0.378125,
2012-05-09, 01:42:04,VALID,1003.81,VALID,0,VALID,86.1072,VALID,0,VALID,25.337,VALID,344,VALID,0.315625,
2012-05-09, 01:43:04,VALID,1003.83,VALID,0,VALID,86.2064,VALID,0,VALID,25.3176,VALID,344,VALID,0.282031,
2012-05-09, 01:44:04,VALID,1003.83,VALID,0,VALID,86.1453,VALID,0,VALID,25.3195,VALID,346,VALID,0.348437,
2012-05-09, 01:45:04,VALID,1003.82,VALID,0,VALID,86.3208,VALID,0,VALID,25.2981,VALID,346,VALID,0.166016,
2012-05-09, 01:46:04,VALID,1003.82,VALID,0,VALID,86.3971,VALID,0,VALID,25.2981,VALID,346,VALID,0.303906,
2012-05-09, 01:47:04,VALID,1003.82,VALID,0,VALID,86.008,VALID,0,VALID,25.3,VALID,348,VALID,0.475781,
2012-05-09, 01:48:04,VALID,1003.83,VALID,0,VALID,86.2445,VALID,0,VALID,25.3176,VALID,350,VALID,0.510938,
2012-05-09, 01:49:04,VALID,1003.78,VALID,0,VALID,85.5503,VALID,0,VALID,25.2981,VALID,330,VALID,0.675781,
2012-05-09, 01:50:04,VALID,1003.79,VALID,0,VALID,85.9927,VALID,0,VALID,25.3176,VALID,341,VALID,0.659766,
2012-05-09, 01:51:04,VALID,1003.81,VALID,0,VALID,86.1453,VALID,0,VALID,25.3176,VALID,341,VALID,0.45,
2012-05-09, 01:52:04,VALID,1003.79,VALID,0,VALID,85.8859,VALID,0,VALID,25.2767,VALID,344,VALID,0.551953,
2012-05-09, 01:53:04,VALID,1003.77,VALID,0,VALID,85.7181,VALID,0,VALID,25.3195,VALID,331,VALID,0.892578,
2012-05-09, 01:54:04,VALID,1003.74,VALID,0,VALID,85.5121,VALID,0,VALID,25.3176,VALID,334,VALID,0.820703,
2012-05-09, 01:55:04,VALID,1003.72,VALID,0,VALID,85.4053,VALID,0,VALID,25.3584,VALID,355,VALID,0.758203,
2012-05-09, 01:56:04,VALID,1003.72,VALID,0,VALID,85.0925,VALID,0,VALID,25.3779,VALID,342,VALID,0.665234,
2012-05-09, 01:57:04,VALID,1003.7,VALID,0,VALID,84.8866,VALID,0,VALID,25.3974,VALID,345,VALID,0.725781,
2012-05-09, 01:58:04,VALID,1003.65,VALID,0,VALID,84.4899,VALID,0,VALID,25.3955,VALID,343,VALID,0.7,
2012-05-09, 01:59:04,VALID,1003.65,VALID,0,VALID,84.5204,VALID,0,VALID,25.4363,VALID,349,VALID,0.683203,
2012-05-09, 02:00:04,VALID,1003.67,VALID,0,VALID,83.994,VALID,0,VALID,25.4734,VALID,351,VALID,1.14375,
2012-05-09, 02:01:04,VALID,1003.62,VALID,0,VALID,83.8261,VALID,0,VALID,25.5337,VALID,346,VALID,0.796484,
2012-05-09, 02:02:04,VALID,1003.64,VALID,0,VALID,83.9863,VALID,0,VALID,25.5727,VALID,353,VALID,0.800391,
2012-05-09, 02:03:04,VALID,1003.6,VALID,0,VALID,83.6964,VALID,0,VALID,25.5727,VALID,347,VALID,0.642578,
2012-05-09, 02:04:04,VALID,1003.6,VALID,0,VALID,83.5057,VALID,0,VALID,25.5921,VALID,346,VALID,0.945313,
2012-05-09, 02:05:04,VALID,1003.6,VALID,0,VALID,83.7117,VALID,0,VALID,25.633,VALID,351,VALID,0.614062,
2012-05-09, 02:06:04,VALID,1003.6,VALID,0,VALID,84.4746,VALID,0,VALID,25.6116,VALID,351,VALID,0.332812,
2012-05-09, 02:07:04,VALID,1003.61,VALID,0,VALID,84.7111,VALID,0,VALID,25.5532,VALID,351,VALID,0.326953,
2012-05-09, 02:08:04,VALID,1003.61,VALID,0,VALID,85.0544,VALID,0,VALID,25.4753,VALID,8,VALID,0.594922,
2012-05-09, 02:09:04,VALID,1003.62,VALID,0,VALID,84.9934,VALID,0.0815089,VALID,25.4149,VALID,351,VALID,0.563672,
2012-05-09, 02:10:04,VALID,1003.61,VALID,0,VALID,85.6723,VALID,0.0815089,VALID,25.4149,VALID,350,VALID,0.00117188,
2012-05-09, 02:11:04,VALID,1003.61,VALID,0,VALID,85.9851,VALID,0.0815089,VALID,25.337,VALID,350,VALID,0.028125,
2012-05-09, 02:12:04,VALID,1003.61,VALID,0,VALID,86.275,VALID,0.0815089,VALID,25.2767,VALID,350,VALID,0,
2012-05-09, 02:13:04,VALID,1003.57,VALID,0,VALID,86.5268,VALID,0.0815089,VALID,25.2378,VALID,350,VALID,0,
2012-05-09, 02:14:04,VALID,1003.55,VALID,0,VALID,86.6412,VALID,0.0815089,VALID,25.2007,VALID,350,VALID,0,
2012-05-09, 02:15:04,VALID,1003.56,VALID,0,VALID,86.8853,VALID,0.0815089,VALID,25.1599,VALID,350,VALID,0.145313,
2012-05-09, 02:16:04,VALID,1003.53,VALID,0,VALID,87.1905,VALID,0.0815089,VALID,25.1618,VALID,350,VALID,0.0195313,
2012-05-09, 02:17:04,VALID,1003.5,VALID,0,VALID,87.5643,VALID,0.0815089,VALID,25.1229,VALID,350,VALID,0,
2012-05-09, 02:18:04,VALID,1003.51,VALID,0,VALID,87.5414,VALID,0.0815089,VALID,25.1034,VALID,350,VALID,0,
2012-05-09, 02:19:04,VALID,1003.44,VALID,0,VALID,87.8694,VALID,0.0815089,VALID,25.0644,VALID,350,VALID,0,
2012-05-09, 02:20:04,VALID,1003.48,VALID,0,VALID,87.9076,VALID,0.0815089,VALID,25.045,VALID,350,VALID,0,
2012-05-09, 02:21:04,VALID,1003.46,VALID,0,VALID,87.8237,VALID,0.0815089,VALID,25.0255,VALID,350,VALID,0.469141,
2012-05-09, 02:22:04,VALID,1003.44,VALID,0,VALID,87.9152,VALID,0.0815089,VALID,24.9847,VALID,350,VALID,0.372266,
2012-05-09, 02:23:04,VALID,1003.42,VALID,0,VALID,88.0831,VALID,0.0815089,VALID,24.9847,VALID,350,VALID,0.319141,
2012-05-09, 02:24:04,VALID,1003.45,VALID,0,VALID,87.9534,VALID,0,VALID,24.9885,VALID,350,VALID,0.646875,
2012-05-09, 02:25:04,VALID,1003.43,VALID,0,VALID,87.8771,VALID,0,VALID,24.9866,VALID,350,VALID,0.482031,
2012-05-09, 02:26:04,VALID,1003.45,VALID,0,VALID,87.5795,VALID,0,VALID,25.0079,VALID,350,VALID,0.457031,
2012-05-09, 02:27:04,VALID,1003.44,VALID,0,VALID,87.5261,VALID,0,VALID,25.0255,VALID,350,VALID,0.617969,
2012-05-09, 02:28:04,VALID,1003.44,VALID,0,VALID,87.2134,VALID,0,VALID,25.0858,VALID,351,VALID,0.578906,
2012-05-09, 02:29:04,VALID,1003.45,VALID,0,VALID,87.1066,VALID,0,VALID,25.1053,VALID,351,VALID,0.486328,
2012-05-09, 02:30:04,VALID,1003.45,VALID,0,VALID,86.9158,VALID,0,VALID,25.1442,VALID,351,VALID,0.461719,
2012-05-09, 02:31:04,VALID,1003.41,VALID,0,VALID,86.2979,VALID,0,VALID,25.1832,VALID,350,VALID,0.850391,
2012-05-09, 02:32:04,VALID,1003.42,VALID,0,VALID,86.0385,VALID,0,VALID,25.2202,VALID,346,VALID,0.780859,
2012-05-09, 02:33:04,VALID,1003.41,VALID,0,VALID,85.5426,VALID,0,VALID,25.2611,VALID,343,VALID,0.853125,
2012-05-09, 02:34:04,VALID,1003.41,VALID,0,VALID,85.7334,VALID,0,VALID,25.2981,VALID,343,VALID,0.48125,
2012-05-09, 02:35:04,VALID,1003.4,VALID,0,VALID,85.6418,VALID,0.0815089,VALID,25.3779,VALID,343,VALID,0.439844,
2012-05-09, 02:36:04,VALID,1003.39,VALID,0,VALID,85.3214,VALID,0,VALID,25.3565,VALID,340,VALID,0.627344,
2012-05-09, 02:37:04,VALID,1003.35,VALID,0,VALID,85.0849,VALID,0,VALID,25.3974,VALID,350,VALID,0.887109,
2012-05-09, 02:38:04,VALID,1003.37,VALID,0,VALID,85.1307,VALID,0,VALID,25.4149,VALID,354,VALID,0.773047,
2012-05-09, 02:39:04,VALID,1003.35,VALID,0,VALID,84.9323,VALID,0,VALID,25.4558,VALID,360,VALID,0.753516,
2012-05-09, 02:40:04,VALID,1003.32,VALID,0,VALID,84.5509,VALID,0,VALID,25.4753,VALID,358,VALID,0.766797,
2012-05-09, 02:41:04,VALID,1003.3,VALID,0,VALID,84.7111,VALID,0.0815089,VALID,25.5123,VALID,354,VALID,0.5,
2012-05-09, 02:42:04,VALID,1003.28,VALID,0,VALID,84.8637,VALID,0,VALID,25.5337,VALID,354,VALID,0.622266,
2012-05-09, 02:43:04,VALID,1003.3,VALID,0,VALID,85.0773,VALID,0,VALID,25.5142,VALID,354,VALID,0.4875,
2012-05-09, 02:44:04,VALID,1003.27,VALID,0,VALID,85.2146,VALID,0,VALID,25.4753,VALID,354,VALID,0.73125,
2012-05-09, 02:45:04,VALID,1003.24,VALID,0,VALID,85.5503,VALID,0,VALID,25.4558,VALID,354,VALID,0.452344,
2012-05-09, 02:46:04,VALID,1003.24,VALID,0,VALID,85.802,VALID,0,VALID,25.3974,VALID,354,VALID,0.408984,
2012-05-09, 02:47:04,VALID,1003.21,VALID,0,VALID,86.0767,VALID,0,VALID,25.3779,VALID,354,VALID,0.314453,
2012-05-09, 02:48:04,VALID,1003.19,VALID,0,VALID,86.2521,VALID,0,VALID,25.339,VALID,354,VALID,0.449219,
2012-05-09, 02:49:04,VALID,1003.17,VALID,0,VALID,86.0538,VALID,0,VALID,25.3409,VALID,355,VALID,0.76875,
2012-05-09, 02:50:04,VALID,1003.15,VALID,0,VALID,86.1758,VALID,0,VALID,25.3195,VALID,355,VALID,0.542188,
2012-05-09, 02:51:04,VALID,1003.15,VALID,0,VALID,86.0767,VALID,0.0815089,VALID,25.3195,VALID,355,VALID,0.551562,
2012-05-09, 02:52:04,VALID,1003.14,VALID,0,VALID,85.947,VALID,0,VALID,25.3195,VALID,354,VALID,0.521875,
2012-05-09, 02:53:04,VALID,1003.13,VALID,0,VALID,86.0995,VALID,0,VALID,25.3176,VALID,354,VALID,0.404687,
2012-05-09, 02:54:04,VALID,1003.14,VALID,0,VALID,85.9927,VALID,0,VALID,25.3195,VALID,354,VALID,0.280859,
2012-05-09, 02:55:04,VALID,1003.14,VALID,0,VALID,86.1377,VALID,0,VALID,25.3195,VALID,354,VALID,0.350391,
2012-05-09, 02:56:04,VALID,1003.12,VALID,0,VALID,85.8325,VALID,0,VALID,25.3195,VALID,354,VALID,0.785547,
2012-05-09, 02:57:04,VALID,1003.13,VALID,0,VALID,86.1072,VALID,0,VALID,25.3176,VALID,354,VALID,0.443359,
2012-05-09, 02:58:04,VALID,1003.14,VALID,0,VALID,86.2826,VALID,0,VALID,25.3195,VALID,354,VALID,0.287109,
2012-05-09, 02:59:04,VALID,1003.16,VALID,0,VALID,86.5115,VALID,0,VALID,25.3,VALID,354,VALID,0.424219,
2012-05-09, 03:00:04,VALID,1003.14,VALID,0,VALID,86.5802,VALID,0,VALID,25.2611,VALID,354,VALID,0.533203,
2012-05-09, 03:01:04,VALID,1003.14,VALID,0,VALID,86.9769,VALID,0,VALID,25.2027,VALID,354,VALID,0.364844,
2012-05-09, 03:02:04,VALID,1003.13,VALID,0,VALID,87.1752,VALID,0,VALID,25.1442,VALID,354,VALID,0.415234,
2012-05-09, 03:03:04,VALID,1003.13,VALID,0,VALID,87.4727,VALID,0,VALID,25.0858,VALID,354,VALID,0.316016,
2012-05-09, 03:04:04,VALID,1003.15,VALID,0,VALID,87.6863,VALID,0,VALID,25.0469,VALID,354,VALID,0.341016,
2012-05-09, 03:05:04,VALID,1003.15,VALID,0,VALID,87.8008,VALID,0,VALID,25.0293,VALID,354,VALID,0.319922,
2012-05-09, 03:06:04,VALID,1003.14,VALID,0,VALID,87.6711,VALID,0,VALID,24.9904,VALID,350,VALID,0.521875,
2012-05-09, 03:07:04,VALID,1003.12,VALID,0,VALID,87.7932,VALID,0,VALID,24.9709,VALID,350,VALID,0.276563,
2012-05-09, 03:08:04,VALID,1003.13,VALID,0,VALID,87.8923,VALID,0,VALID,24.9495,VALID,350,VALID,0.369531,
2012-05-09, 03:09:04,VALID,1003.13,VALID,0,VALID,88.0983,VALID,0,VALID,24.93,VALID,350,VALID,0.36875,
2012-05-09, 03:10:04,VALID,1003.11,VALID,0,VALID,87.961,VALID,0,VALID,24.8911,VALID,350,VALID,0.319141,
2012-05-09, 03:11:04,VALID,1003.12,VALID,0,VALID,88.1746,VALID,0,VALID,24.8716,VALID,350,VALID,0.444922,
2012-05-09, 03:12:04,VALID,1003.14,VALID,0,VALID,88.2585,VALID,0,VALID,24.8716,VALID,350,VALID,0.286719,
2012-05-09, 03:13:04,VALID,1003.14,VALID,0,VALID,88.3424,VALID,0,VALID,24.8522,VALID,350,VALID,0.206641,
2012-05-09, 03:14:04,VALID,1003.15,VALID,0,VALID,88.434,VALID,0,VALID,24.8327,VALID,350,VALID,0.247656,
2012-05-09, 03:15:04,VALID,1003.15,VALID,0,VALID,88.4874,VALID,0,VALID,24.8327,VALID,350,VALID,0.336328,
2012-05-09, 03:16:04,VALID,1003.15,VALID,0,VALID,88.5713,VALID,0,VALID,24.8346,VALID,350,VALID,0.384375,
2012-05-09, 03:17:04,VALID,1003.16,VALID,0,VALID,88.5942,VALID,0,VALID,24.8151,VALID,350,VALID,0.263672,
2012-05-09, 03:18:04,VALID,1003.14,VALID,0,VALID,88.6705,VALID,0,VALID,24.7937,VALID,354,VALID,0.585547,
2012-05-09, 03:19:04,VALID,1003.15,VALID,0,VALID,88.7468,VALID,0,VALID,24.7937,VALID,2,VALID,0.488281,
2012-05-09, 03:20:04,VALID,1003.15,VALID,0,VALID,88.5866,VALID,0,VALID,24.7937,VALID,2,VALID,0.632031,
2012-05-09, 03:21:04,VALID,1003.15,VALID,0,VALID,88.5332,VALID,0,VALID,24.7919,VALID,2,VALID,0.726953,
2012-05-09, 03:22:04,VALID,1003.15,VALID,0,VALID,88.6247,VALID,0,VALID,24.7919,VALID,2,VALID,0.695313,
2012-05-09, 03:23:04,VALID,1003.16,VALID,0,VALID,88.5026,VALID,0,VALID,24.7937,VALID,2,VALID,0.442578,
2012-05-09, 03:24:04,VALID,1003.15,VALID,0,VALID,88.6247,VALID,0,VALID,24.7919,VALID,2,VALID,0.444922,
2012-05-09, 03:25:04,VALID,1003.15,VALID,0,VALID,88.6934,VALID,0.0815089,VALID,24.8113,VALID,2,VALID,0.314844,
2012-05-09, 03:26:04,VALID,1003.15,VALID,0,VALID,88.7925,VALID,0,VALID,24.7724,VALID,2,VALID,0.405078,
2012-05-09, 03:27:04,VALID,1003.17,VALID,0,VALID,88.968,VALID,0,VALID,24.7316,VALID,2,VALID,0.384375,
2012-05-09, 03:28:04,VALID,1003.16,VALID,0,VALID,89.1358,VALID,0.0815089,VALID,24.7335,VALID,2,VALID,0.471484,
2012-05-09, 03:29:04,VALID,1003.16,VALID,0,VALID,89.3189,VALID,0.0815089,VALID,24.7529,VALID,2,VALID,0.582812,
2012-05-09, 03:30:04,VALID,1003.16,VALID,0,VALID,89.3342,VALID,0.0815089,VALID,24.714,VALID,2,VALID,0.698047,
2012-05-09, 03:31:04,VALID,1003.14,VALID,0,VALID,89.5478,VALID,0,VALID,24.7353,VALID,2,VALID,0.470313,
2012-05-09, 03:32:04,VALID,1003.17,VALID,0,VALID,89.4715,VALID,0,VALID,24.6945,VALID,3,VALID,0.39375,
2012-05-09, 03:33:04,VALID,1003.14,VALID,0,VALID,89.502,VALID,0,VALID,24.6945,VALID,3,VALID,0,
2012-05-09, 03:34:04,VALID,1003.17,VALID,0,VALID,89.2808,VALID,0.0815089,VALID,24.675,VALID,4,VALID,0,
2012-05-09, 03:35:04,VALID,1003.14,VALID,0,VALID,89.1587,VALID,0,VALID,24.7159,VALID,11,VALID,0,
2012-05-09, 03:36:04,VALID,1003.16,VALID,0,VALID,89.0824,VALID,0,VALID,24.714,VALID,11,VALID,0,
2012-05-09, 03:37:04,VALID,1003.19,VALID,0,VALID,88.8078,VALID,0,VALID,24.7335,VALID,15,VALID,0,
2012-05-09, 03:38:04,VALID,1003.16,VALID,0,VALID,88.5103,VALID,0.0815089,VALID,24.7724,VALID,15,VALID,0,
2012-05-09, 03:39:04,VALID,1003.18,VALID,0,VALID,88.6628,VALID,0,VALID,24.7937,VALID,15,VALID,0,
2012-05-09, 03:40:04,VALID,1003.21,VALID,0,VALID,88.5866,VALID,0,VALID,24.8327,VALID,15,VALID,0,
2012-05-09, 03:41:04,VALID,1003.22,VALID,0,VALID,88.1822,VALID,0,VALID,24.8327,VALID,15,VALID,0,
2012-05-09, 03:42:04,VALID,1003.21,VALID,0,VALID,87.8694,VALID,0,VALID,24.8716,VALID,15,VALID,0,
2012-05-09, 03:43:04,VALID,1003.23,VALID,0,VALID,87.694,VALID,0,VALID,24.9106,VALID,15,VALID,0,
2012-05-09, 03:44:04,VALID,1003.23,VALID,0,VALID,87.5033,VALID,0,VALID,24.93,VALID,15,VALID,0,
2012-05-09, 03:45:04,VALID,1003.28,VALID,0,VALID,87.5795,VALID,0,VALID,24.9495,VALID,15,VALID,0,